TimeCDT,TemperatureF,Dew PointF,Humidity,Sea Level PressureIn,VisibilityMPH,Wind Direction,Wind SpeedMPH,Gust SpeedMPH,PrecipitationIn,Events,Conditions,WindDirDegrees,DateUTC
12:11 AM,122.0,-9999,N/A,30.01,4.0,Calm,Calm,-,N/A,,Haze,0,2013-07-11 05:11:00
12:23 AM,120.2,-9999,N/A,30.01,3.0,Calm,Calm,-,N/A,,Mostly Cloudy,0,2013-07-11 05:23:00
12:40 AM,122.0,-9999,N/A,30.01,4.0,Calm,Calm,-,N/A,,Haze,0,2013-07-11 05:40:00
12:56 AM,120.9,-9999,N/A,29.98,1.2,Calm,Calm,-,N/A,,Mostly Cloudy,0,2013-07-11 05:56:00
12:59 AM,120.2,-9999,N/A,30.00,0.8,Calm,Calm,-,N/A,,Mostly Cloudy,0,2013-07-11 05:59:00
1:13 AM,118.4,-9999,N/A,30.00,0.5,Calm,Calm,-,N/A,Fog,Fog,0,2013-07-11 06:13:00
1:22 AM,118.4,-9999,N/A,30.00,0.2,Calm,Calm,-,N/A,Fog,Fog,0,2013-07-11 06:22:00
1:25 AM,118.4,-9999,N/A,30.00,0.5,Calm,Calm,-,N/A,Fog,Fog,0,2013-07-11 06:25:00
1:32 AM,120.2,-9999,N/A,30.00,0.8,Calm,Calm,-,N/A,,Mist,0,2013-07-11 06:32:00
1:39 AM,122.0,-9999,N/A,30.00,0.5,Calm,Calm,-,N/A,Fog,Fog,0,2013-07-11 06:39:00
1:47 AM,120.2,-9999,N/A,30.00,0.2,Calm,Calm,-,N/A,Fog,Fog,0,2013-07-11 06:47:00
1:56 AM,119.8,-9999,N/A,29.97,0.2,Calm,Calm,-,N/A,Fog,Fog,0,2013-07-11 06:56:00
2:05 AM,123.8,-9999,N/A,30.00,0.2,Calm,Calm,-,N/A,Fog,Fog,0,2013-07-11 07:05:00
2:24 AM,123.8,-9999,N/A,30.00,0.2,South,3.5,-,N/A,Fog,Fog,180,2013-07-11 07:24:00
2:36 AM,123.8,-9999,N/A,29.99,0.5,Calm,Calm,-,N/A,Fog,Fog,0,2013-07-11 07:36:00
2:39 AM,125.6,-9999,N/A,29.99,1.0,Calm,Calm,-,N/A,,Overcast,0,2013-07-11 07:39:00
2:41 AM,125.6,-9999,N/A,29.99,1.5,Calm,Calm,-,N/A,,Overcast,0,2013-07-11 07:41:00
2:43 AM,125.6,-9999,N/A,29.99,3.0,South,3.5,-,N/A,,Overcast,180,2013-07-11 07:43:00
2:56 AM,126.0,-9999,N/A,29.96,6.0,Calm,Calm,-,N/A,,Haze,0,2013-07-11 07:56:00
3:56 AM,120.9,-9999,N/A,29.96,6.0,Calm,Calm,-,N/A,,Haze,0,2013-07-11 08:56:00
4:56 AM,117.9,-9999,N/A,29.97,5.0,Calm,Calm,-,N/A,,Haze,0,2013-07-11 09:56:00
5:21 AM,120.2,-9999,N/A,30.00,2.0,Calm,Calm,-,N/A,,Overcast,0,2013-07-11 10:21:00
5:56 AM,117.0,-9999,N/A,29.98,1.0,Calm,Calm,-,N/A,,Overcast,0,2013-07-11 10:56:00
6:02 AM,118.4,-9999,N/A,30.01,1.5,Calm,Calm,-,N/A,,Overcast,0,2013-07-11 11:02:00
6:10 AM,118.4,-9999,N/A,30.01,2.5,Calm,Calm,-,N/A,,Overcast,0,2013-07-11 11:10:00
6:30 AM,118.4,-9999,N/A,30.01,1.8,Calm,Calm,-,N/A,,Overcast,0,2013-07-11 11:30:00
6:35 AM,118.4,-9999,N/A,30.01,3.0,Calm,Calm,-,N/A,,Overcast,0,2013-07-11 11:35:00
6:56 AM,120.9,-9999,N/A,29.98,4.0,South,3.5,-,N/A,,Haze,170,2013-07-11 11:56:00
7:56 AM,109.9,-9999,N/A,29.99,6.0,South,3.5,-,N/A,,Haze,180,2013-07-11 12:56:00
8:06 AM,109.4,-9999,N/A,30.02,6.0,SSE,4.6,-,N/A,,Haze,160,2013-07-11 13:06:00
8:30 AM,111.2,-9999,N/A,30.02,6.0,South,4.6,-,N/A,,Haze,170,2013-07-11 13:30:00
8:56 AM,109.9,-9999,N/A,29.99,8.0,South,4.6,-,N/A,,Overcast,180,2013-07-11 13:56:00
9:32 AM,123.8,-9999,N/A,30.02,10.0,Calm,Calm,-,N/A,,Overcast,0,2013-07-11 14:32:00
9:56 AM,75.9,72.9,90,30.00,10.0,Calm,Calm,-,N/A,,Overcast,0,2013-07-11 14:56:00
10:30 AM,75.2,73.4,94,30.03,10.0,NNE,5.8,-,N/A,,Overcast,30,2013-07-11 15:30:00
10:56 AM,77.9,72.9,84,30.00,10.0,NNW,5.8,-,N/A,,Mostly Cloudy,330,2013-07-11 15:56:00
11:56 AM,79.0,72.0,79,30.00,10.0,Variable,3.5,-,N/A,,Mostly Cloudy,0,2013-07-11 16:56:00
12:25 PM,78.8,71.6,78,30.01,10.0,NNE,4.6,-,N/A,,Mostly Cloudy,20,2013-07-11 17:25:00
12:56 PM,81.9,72.0,72,29.98,10.0,Variable,3.5,-,N/A,,Partly Cloudy,0,2013-07-11 17:56:00
1:56 PM,83.8,72.0,67,29.96,10.0,Calm,Calm,-,N/A,,Scattered Clouds,0,2013-07-11 18:56:00
2:56 PM,84.9,72.0,65,29.95,10.0,NNW,4.6,-,N/A,,Scattered Clouds,330,2013-07-11 19:56:00
3:56 PM,83.8,72.9,69,29.94,10.0,Calm,Calm,-,N/A,,Partly Cloudy,0,2013-07-11 20:56:00
4:56 PM,83.8,72.0,67,29.94,10.0,Calm,Calm,-,N/A,,Clear,0,2013-07-11 21:56:00
5:56 PM,82.9,73.9,74,29.93,10.0,NNW,4.6,-,N/A,,Clear,340,2013-07-11 22:56:00
6:56 PM,79.0,75.9,90,29.92,8.0,NW,4.6,-,N/A,,Scattered Clouds,320,2013-07-11 23:56:00
7:56 PM,73.9,72.9,96,29.94,9.0,North,4.6,-,N/A,,Clear,350,2013-07-12 00:56:00
8:56 PM,75.9,72.0,87,29.95,10.0,North,6.9,-,N/A,,Mostly Cloudy,360,2013-07-12 01:56:00
9:56 PM,72.9,70.0,91,29.99,10.0,NE,4.6,-,N/A,,Scattered Clouds,50,2013-07-12 02:56:00
10:56 PM,72.9,70.9,93,29.99,10.0,NE,4.6,-,N/A,,Scattered Clouds,40,2013-07-12 03:56:00
11:56 PM,70.9,70.0,97,30.00,10.0,NE,4.6,-,N/A,,Scattered Clouds,40,2013-07-12 04:56:00